STARLINK-31884, 59676

Orbit data source: Space-Track

STARLINK-31884, 59676 is a payload satellite owned by SpaceX/Seattle (US) in LEO that was launched on Mon, 06 May 2024 UTC via an FALCON 9 launch vehicle from the Air Force Eastern Test Range (AFETR). Payload-class satellites include a variety of spacecraft equipped with specific instruments for various scientific and technological missions. These include communications satellites like Starlink; space stations such as the ISS; scientific satellites like the Hubble; Earth observation satellites from companies like Planet Labs, Umbra, and HawkEye 360; GPS; miniature CubeSats for education and research; and military/defense satellites.

Loading next visibility...
Identifier
59676, 2024-084Y
Orbit
LEO
Country
Flag of USUS
Related business
Manufacturer
SpaceX/Seattle
Mission
Operational Commercial Communications
Bus & Motor
STARLINK V2M, Unknown motor
Mass
730 kg wet, ~700 kg dry
Launch date (UTC)
2024-05-06 (2 years ago)
Launch vehicle
FALCON 9
Launch site
Air Force Eastern Test Range (AFETR)
Object type
Payload
Rocket body
Debris
Shape & HBR
Box + 2 Pan, 17.7 m
Radar Cross Section
33.884 m², Large (>1 m²)

Expand to show TLE details & history
Last TLE update: 13 hours ago

TLE from 13 hours ago
0 STARLINK-31884
1 59676U 24084Y   26073.13662261  .00000984  00000-0  45278-4 0  9997
2 59676  43.0019  16.6682 0000841 253.6529 106.4231 15.27570466105057
Epoch: 2026-03-14T03:16Z
TLE epoch observation values (Epoch: 2026-03-14T03:16:44.193Z)
Latitude
0.00003°
Longitude
155.72197°
Altitude
483.016 km
Speed
7.626 km/s
True Right ascension
01h 06m 40s
True Declination
0° 00' 00"
Sunlit
Object was in daylight at epoch
Visualization orbit readout
Latitude
Unknown
Longitude
Unknown
Altitude
Unknown
Speed
Unknown
Apparent Right ascension
Unknown
Apparent Declination
Unknown
Sunlit
N/A
Visualization observer readout
Local Sidereal Time
21:03:25
Azimuth
Unknown
Elevation
Unknown
Doppler factor
Unknown
Orbital elements
Apogee altitude
485.6 km
Perigee altitude
484.445 km
Semi-major axis
6,863.159 km
Eccentricity
0.00008
Inclination
43.0019°
RAAN
16.6682°
Arg. of periapsis
253.6529°
True anomaly
106.43234°
Mean anomaly
106.4231°
Eccentric anomaly
106.42772°
Mean motion
3.81731 °/min
Orbital period
94.31 mins
BSTAR
0.000045278
Loading maneuver chart data...
Computing Atmospheric mass density...
Loading historical data...
Loading historical data...
Loading historical data...
Loading historical data...
Loading historical data...
Loading historical data...
Loading historical data...

Documentation

Showing up to 5 results
|